Adrian, MI

9:47 AM EST on February 10, 2016 (GMT -0500)
Lenawee County

Weather History for KADG - January, 2013

Change the Weather History Date:

Thursday, January 31, 2013

  Actual Average Record
Temperature  
Mean Temperature 23 °F -  
Max Temperature 30 °F 33 °F 60 °F (1989)
Min Temperature 16 °F 16 °F -7 °F (1981)
Degree Days  
Heating Degree Days 42    
Moisture  
Dew Point 15 °F    
Average Humidity 73    
Maximum Humidity 93    
Minimum Humidity 55    
Precipitation  
Precipitation 0.00 in - - ()
Sea Level Pressure  
Sea Level Pressure 29.64 in    
Wind  
Wind Speed 18 mph (WNW)    
Max Wind Speed 25 mph    
Max Gust Speed 37 mph    
Visibility 6 miles    
Events Snow    
Averages and records for this station are not official NWS values.
T = Trace of Precipitation, MM = Missing Value Source: NWS Daily Summary

Daily Weather History Graph

Daily Weather History Graph

Search for Another Location

Airport or City:

Trip Planner

Search our weather history database for the weather conditions in past years. The results will help you decide how hot, cold, wet, or windy it might be!

Date:

Astronomy

Jan. 31, 2013 Rise Set
Actual Time 7:49 AM EST 5:50 PM EST
Civil Twilight 7:19 AM EST 6:20 PM EST
Nautical Twilight 6:46 AM EST 6:53 PM EST
Astronomical Twilight 6:13 AM EST 7:26 PM EST
Moon 10:57 PM EST (1/31) 9:43 AM EST (1/31)
Length of Visible Light 11h 00m
Length of Day
10h 01m
Waning Gibbous, 80% of the Moon is Illuminated
Jan 31
Waning Gibbous
Feb 3
Last Quarter
Feb 10
New
Feb 17
First Quarter
Feb 25
Full

Hourly Weather History & Observations

Time (EST) Temp. Windchill Dew Point Humidity Pressure Visibility Wind Dir Wind Speed Gust Speed Precip Events Conditions
12:07 AM 30.2 °F 18.5 °F 21.2 °F 69% 29.35 in 10.0 mi WNW 17.3 mph 28.8 mph N/A   Overcast
12:53 AM 30.0 °F 16.6 °F 19.9 °F 66% 29.39 in 10.0 mi WNW 23.0 mph 34.5 mph N/A   Overcast
1:53 AM 28.0 °F 15.7 °F 21.9 °F 78% 29.43 in 5.0 mi WNW 17.3 mph 26.5 mph 0.00 in Snow Light Snow
2:08 AM 26.6 °F 12.4 °F 21.2 °F 80% 29.42 in 2.0 mi WNW 21.9 mph 29.9 mph 0.00 in Snow Light Snow
2:10 AM 26.6 °F 12.7 °F 23.0 °F 86% 29.42 in 1.5 mi NW 20.7 mph 29.9 mph 0.00 in Snow Light Snow
2:16 AM 26.6 °F 13.1 °F 24.8 °F 93% 29.43 in 0.8 mi WNW 19.6 mph 32.2 mph 0.00 in Snow Light Snow
2:24 AM 26.6 °F 13.1 °F 23.0 °F 86% 29.43 in 1.2 mi WNW 19.6 mph 32.2 mph 0.00 in Snow Light Snow
2:28 AM 28.4 °F 16.2 °F 21.2 °F 74% 29.44 in 2.0 mi WNW 17.3 mph 28.8 mph 0.00 in Snow Light Snow
2:35 AM 28.4 °F 15.8 °F 21.2 °F 74% 29.44 in 6.0 mi WNW 18.4 mph 32.2 mph 0.00 in Snow Light Snow
2:53 AM 28.0 °F 14.6 °F 21.0 °F 75% 29.47 in 9.0 mi WNW 20.7 mph 34.5 mph 0.00 in Snow Light Snow
3:06 AM 28.4 °F 14.7 °F 19.4 °F 69% 29.46 in 10.0 mi WNW 21.9 mph 32.2 mph 0.00 in   Overcast
3:31 AM 26.6 °F 14.7 °F 17.6 °F 69% 29.47 in 9.0 mi WNW 15.0 mph 34.5 mph 0.00 in   Overcast
3:38 AM 26.6 °F 13.4 °F 17.6 °F 69% 29.47 in 10.0 mi WNW 18.4 mph 27.6 mph 0.00 in   Overcast
3:53 AM 26.1 °F 12.0 °F 16.0 °F 66% 29.51 in 10.0 mi WNW 20.7 mph 36.8 mph 0.00 in   Overcast
4:43 AM 24.8 °F 10.0 °F 19.4 °F 80% 29.52 in 1.5 mi WNW 21.9 mph 29.9 mph 0.00 in Snow Light Snow
4:46 AM 24.8 °F 10.7 °F 19.4 °F 80% 29.52 in 0.8 mi WNW 19.6 mph 29.9 mph 0.00 in Snow Light Snow
4:53 AM 24.1 °F 9.8 °F 19.0 °F 81% 29.55 in 0.8 mi West 19.6 mph 29.9 mph 0.00 in Snow Light Snow
4:57 AM 24.8 °F 11.1 °F 17.6 °F 74% 29.53 in 1.8 mi WNW 18.4 mph 29.9 mph 0.00 in Snow Light Snow
4:59 AM 24.8 °F 10.7 °F 17.6 °F 74% 29.53 in 3.0 mi West 19.6 mph 29.9 mph 0.00 in Snow Light Snow
5:09 AM 24.8 °F 10.7 °F 15.8 °F 69% 29.53 in 10.0 mi WNW 19.6 mph 31.1 mph 0.00 in   Overcast
5:53 AM 24.1 °F 11.0 °F 14.0 °F 65% 29.58 in 10.0 mi WNW 16.1 mph 27.6 mph 0.00 in   Overcast
6:53 AM 23.0 °F 8.7 °F 12.9 °F 65% 29.61 in 10.0 mi WNW 18.4 mph 29.9 mph N/A   Overcast
7:53 AM 23.0 °F 10.6 °F 14.0 °F 68% 29.64 in 10.0 mi West 13.8 mph 25.3 mph N/A   Overcast
8:19 AM 21.2 °F 7.3 °F 17.6 °F 86% 29.62 in 4.0 mi West 16.1 mph 21.9 mph 0.00 in Snow Light Snow
8:28 AM 21.2 °F 7.8 °F 17.6 °F 86% 29.63 in 2.5 mi West 15.0 mph 23.0 mph 0.00 in Snow Light Snow
8:32 AM 21.2 °F 7.8 °F 17.6 °F 86% 29.63 in 3.0 mi West 15.0 mph 23.0 mph 0.00 in Snow Light Snow
8:40 AM 21.2 °F 6.4 °F 15.8 °F 80% 29.64 in 1.5 mi West 18.4 mph 27.6 mph 0.00 in Snow Light Snow
8:45 AM 21.2 °F 9.5 °F 17.6 °F 86% 29.64 in 0.8 mi West 11.5 mph 27.6 mph 0.00 in Snow Light Snow
8:53 AM 21.0 °F 6.6 °F 16.0 °F 81% 29.67 in 1.0 mi West 17.3 mph 23.0 mph 0.00 in Snow Light Snow
9:00 AM 21.2 °F 6.0 °F 15.8 °F 80% 29.65 in 1.5 mi West 19.6 mph 24.2 mph 0.00 in Snow Light Snow
9:14 AM 21.2 °F 5.6 °F 15.8 °F 80% 29.65 in 2.0 mi West 20.7 mph 29.9 mph 0.00 in Snow Light Snow
9:28 AM 19.4 °F 5.0 °F 14.0 °F 80% 29.66 in 5.0 mi West 16.1 mph 25.3 mph 0.00 in Snow Light Snow
9:53 AM 19.9 °F 6.7 °F 14.0 °F 78% 29.72 in 3.0 mi West 13.8 mph 25.3 mph 0.00 in Snow Light Snow
10:25 AM 19.4 °F 3.6 °F 12.2 °F 74% 29.70 in 9.0 mi West 19.6 mph 34.5 mph 0.00 in   Overcast
10:37 AM 21.2 °F 6.0 °F 12.2 °F 68% 29.70 in 10.0 mi West 19.6 mph 32.2 mph 0.00 in   Overcast
10:53 AM 21.0 °F 6.6 °F 12.9 °F 71% 29.75 in 6.0 mi West 17.3 mph 25.3 mph 0.00 in Snow Light Snow
11:53 AM 21.0 °F 5.0 °F 12.0 °F 68% 29.77 in 7.0 mi West 21.9 mph 27.6 mph 0.00 in Snow Light Snow
12:06 PM 19.4 °F 4.5 °F 12.2 °F 74% 29.73 in 2.5 mi West 17.3 mph 27.6 mph 0.00 in Snow Light Snow
12:24 PM 21.2 °F 9.5 °F 12.2 °F 68% 29.73 in 4.0 mi West 11.5 mph 26.5 mph 0.00 in Snow Light Snow
12:53 PM 21.0 °F 6.2 °F 10.9 °F 65% 29.77 in 6.0 mi West 18.4 mph 29.9 mph 0.00 in Snow Light Snow
1:05 PM 21.2 °F 5.6 °F 10.4 °F 63% 29.73 in 10.0 mi West 20.7 mph 32.2 mph 0.00 in   Overcast
1:53 PM 21.9 °F 5.1 °F 10.0 °F 60% 29.78 in 10.0 mi West 25.3 mph 35.7 mph 0.00 in   Overcast
2:53 PM 21.9 °F 5.8 °F 8.1 °F 55% 29.79 in 10.0 mi West 23.0 mph 33.4 mph N/A   Overcast
3:40 PM 19.4 °F 4.1 °F 12.2 °F 74% 29.77 in 1.8 mi West 18.4 mph 29.9 mph 0.00 in Snow Light Snow
3:53 PM 19.9 °F 5.7 °F 12.9 °F 74% 29.82 in 2.0 mi West 16.1 mph 27.6 mph 0.00 in Snow Light Snow
4:00 PM 19.4 °F 4.5 °F 12.2 °F 74% 29.78 in 7.0 mi West 17.3 mph 24.2 mph 0.00 in Snow Light Snow
4:07 PM 21.2 °F 8.3 °F 12.2 °F 68% 29.78 in 9.0 mi West 13.8 mph 24.2 mph 0.00 in   Overcast
4:53 PM 19.9 °F 5.7 °F 8.1 °F 60% 29.83 in 10.0 mi WNW 16.1 mph 32.2 mph 0.00 in   Scattered Clouds
5:53 PM 19.0 °F 4.5 °F 8.1 °F 62% 29.85 in 10.0 mi West 16.1 mph 25.3 mph N/A   Overcast
6:53 PM 18.0 °F 3.6 °F 8.1 °F 65% 29.88 in 10.0 mi WNW 15.0 mph 27.6 mph N/A   Overcast
7:53 PM 17.1 °F 3.0 °F 9.0 °F 71% 29.91 in 8.0 mi West 13.8 mph 23.0 mph 0.00 in Snow Light Snow
8:53 PM 16.0 °F 2.9 °F 8.1 °F 71% 29.92 in 10.0 mi West 11.5 mph 21.9 mph 0.00 in   Overcast
9:53 PM 16.0 °F 4.4 °F 9.0 °F 74% 29.94 in 10.0 mi West 9.2 mph 19.6 mph N/A   Overcast
10:53 PM 16.0 °F 1.1 °F 9.0 °F 74% 29.94 in 10.0 mi WNW 15.0 mph - N/A   Overcast
11:53 PM 16.0 °F 1.1 °F 8.1 °F 71% 29.95 in 10.0 mi WNW 15.0 mph 23.0 mph N/A   Mostly Cloudy